Grand Forks AFB, ND

9:17 AM CDT on March 28, 2017 (GMT -0500)
Grand Forks Air Force Base

Weather History for KRDR - January, 2013

Change the Weather History Date:

Wednesday, January 2, 2013

  Actual Average Record
Temperature  
Mean Temperature 17 °F -  
Max Temperature 31 °F 15 °F 41 °F (1997)
Min Temperature 3 °F 0 °F -27 °F (2014)
Degree Days  
Heating Degree Days 48    
Moisture  
Dew Point 11 °F    
Average Humidity 78    
Maximum Humidity 93    
Minimum Humidity 67    
Precipitation  
Precipitation 0.00 in - - ()
Sea Level Pressure  
Sea Level Pressure 30.01 in    
Wind  
Wind Speed 11 mph (NNW)    
Max Wind Speed 18 mph    
Max Gust Speed 25 mph    
Visibility 10 miles    
Events Snow    
Averages and records for this station are not official NWS values.
T = Trace of Precipitation, MM = Missing Value Source: NWS Daily Summary

Daily Weather History Graph

Daily Weather History Graph

Search for Another Location

Airport or City:

Trip Planner

Search our weather history database for the weather conditions in past years. The results will help you decide how hot, cold, wet, or windy it might be!

Date:

Astronomy

Jan. 02, 2013 Rise Set
Actual Time 8:19 AM CST 4:48 PM CST
Civil Twilight 7:43 AM CST 5:24 PM CST
Nautical Twilight 7:03 AM CST 6:04 PM CST
Astronomical Twilight 6:26 AM CST 6:41 PM CST
Moon 10:49 PM CST (1/2) 10:36 AM CST (1/2)
Length of Visible Light 9h 41m
Length of Day
8h 29m
Waning Gibbous, 75% of the Moon is Illuminated
Jan 2
Waning Gibbous
Jan 4
Last Quarter
Jan 11
New
Jan 18
First Quarter
Jan 26
Full

Hourly Weather History & Observations

Time (CST) Temp. Windchill Dew Point Humidity Pressure Visibility Wind Dir Wind Speed Gust Speed Precip Events Conditions
12:09 AM 19.4 °F 10.4 °F 15.8 °F 86% 29.85 in 10.0 mi SSW 6.9 mph - N/A   Overcast
12:35 AM 21.2 °F 13.6 °F 17.6 °F 86% 29.83 in 10.0 mi SSW 5.8 mph - N/A   Overcast
12:37 AM 21.2 °F 12.6 °F 17.6 °F 86% 29.83 in 10.0 mi SSW 6.9 mph - N/A   Overcast
12:40 AM 21.2 °F 13.6 °F 17.6 °F 86% 29.83 in 10.0 mi SSW 5.8 mph - N/A   Overcast
12:55 AM 21.7 °F 14.3 °F 18.1 °F 86% 29.83 in 10.0 mi South 5.8 mph - 0.00 in   Overcast
1:45 AM 24.8 °F 19.1 °F 21.2 °F 86% 29.82 in 10.0 mi WSW 4.6 mph - N/A   Overcast
1:55 AM 25.7 °F - 21.6 °F 84% 29.82 in 10.0 mi Calm Calm - N/A   Overcast
2:19 AM 28.4 °F 19.1 °F 23.0 °F 80% 29.81 in 10.0 mi West 10.4 mph - N/A   Overcast
2:34 AM 28.4 °F 19.1 °F 23.0 °F 80% 29.82 in 10.0 mi West 10.4 mph - N/A   Overcast
2:39 AM 28.4 °F 19.7 °F 23.0 °F 80% 29.82 in 10.0 mi West 9.2 mph - N/A   Overcast
2:55 AM 28.6 °F 19.3 °F 24.3 °F 84% 29.82 in 10.0 mi West 10.4 mph - N/A   Overcast
3:55 AM 30.4 °F 21.5 °F 25.9 °F 83% 29.82 in 10.0 mi WNW 10.4 mph - N/A   Overcast
4:44 AM 30.2 °F 19.8 °F 26.6 °F 86% 29.81 in 10.0 mi WNW 13.8 mph - N/A   Overcast
4:55 AM 31.1 °F 19.7 °F 25.2 °F 79% 29.82 in 10.0 mi NW 17.3 mph 25.3 mph N/A   Overcast
5:12 AM 30.2 °F 19.3 °F 21.2 °F 69% 29.82 in 10.0 mi NW 15.0 mph - N/A   Overcast
5:55 AM 28.4 °F 18.0 °F 20.8 °F 73% 29.82 in 10.0 mi NW 12.7 mph - N/A   Overcast
6:55 AM 27.9 °F 17.3 °F 21.0 °F 75% 29.84 in 10.0 mi NW 12.7 mph - N/A   Overcast
7:04 AM 26.6 °F 13.4 °F 21.2 °F 80% 29.84 in 10.0 mi WNW 18.4 mph - N/A   Overcast
7:09 AM 26.6 °F 14.7 °F 21.2 °F 80% 29.84 in 10.0 mi NW 15.0 mph 21.9 mph N/A   Overcast
7:48 AM 26.6 °F 15.7 °F 21.2 °F 80% 29.86 in 10.0 mi NNW 12.7 mph - N/A   Overcast
7:55 AM 26.2 °F 14.2 °F 20.8 °F 80% 29.86 in 10.0 mi NNW 15.0 mph - N/A   Overcast
8:00 AM 26.6 °F 13.4 °F 21.2 °F 80% 29.87 in 10.0 mi North 18.4 mph 23.0 mph N/A   Overcast
8:01 AM 26.6 °F 13.8 °F 21.2 °F 80% 29.88 in 10.0 mi North 17.3 mph 24.2 mph N/A   Overcast
8:07 AM 24.8 °F 12.4 °F 21.2 °F 86% 29.88 in 10.0 mi North 15.0 mph 24.2 mph N/A   Overcast
8:10 AM 24.8 °F 11.9 °F 21.2 °F 86% 29.88 in 10.0 mi North 16.1 mph 24.2 mph N/A   Overcast
8:30 AM 23.0 °F 10.1 °F 21.2 °F 93% 29.89 in 10.0 mi North 15.0 mph - N/A   Overcast
8:32 AM 23.0 °F 10.6 °F 21.2 °F 93% 29.90 in 10.0 mi North 13.8 mph 19.6 mph N/A   Overcast
8:36 AM 23.0 °F 9.2 °F 19.4 °F 86% 29.90 in 10.0 mi North 17.3 mph 23.0 mph N/A   Overcast
8:55 AM 22.3 °F 9.7 °F 17.6 °F 82% 29.91 in 10.0 mi North 13.8 mph - 0.00 in   Overcast
9:37 AM 21.2 °F 9.5 °F 15.8 °F 80% 29.93 in 10.0 mi North 11.5 mph - N/A   Overcast
9:50 AM 21.2 °F 8.9 °F 15.8 °F 80% 29.94 in 10.0 mi North 12.7 mph 19.6 mph N/A   Overcast
9:55 AM 21.0 °F 8.6 °F 14.9 °F 77% 29.94 in 10.0 mi North 12.7 mph - N/A   Overcast
10:19 AM 21.2 °F 8.9 °F 14.0 °F 74% 29.96 in 10.0 mi North 12.7 mph - N/A   Overcast
10:32 AM 19.4 °F 4.5 °F 12.2 °F 74% 29.96 in 10.0 mi North 17.3 mph - N/A   Mostly Cloudy
10:35 AM 19.4 °F 5.5 °F 12.2 °F 74% 29.96 in 10.0 mi North 15.0 mph - N/A   Mostly Cloudy
10:53 AM 19.4 °F 5.0 °F 12.2 °F 74% 29.98 in 10.0 mi North 16.1 mph - N/A   Mostly Cloudy
10:55 AM 19.2 °F 4.3 °F 11.7 °F 72% 29.98 in 10.0 mi North 17.3 mph - N/A   Mostly Cloudy
10:57 AM 19.4 °F 4.5 °F 12.2 °F 74% 29.98 in 10.0 mi North 17.3 mph - N/A   Mostly Cloudy
11:02 AM 19.4 °F 6.6 °F 12.2 °F 74% 29.98 in 10.0 mi North 12.7 mph - N/A   Mostly Cloudy
11:14 AM 17.6 °F 5.0 °F 12.2 °F 79% 29.99 in 10.0 mi North 11.5 mph - N/A   Mostly Cloudy
11:17 AM 17.6 °F 3.7 °F 12.2 °F 79% 29.99 in 10.0 mi North 13.8 mph - N/A Snow Light Snow
11:18 AM 17.6 °F 3.7 °F 12.2 °F 79% 29.99 in 10.0 mi North 13.8 mph - N/A Snow Light Snow
11:20 AM 17.6 °F 4.3 °F 12.2 °F 79% 29.99 in 10.0 mi North 12.7 mph - N/A Snow Light Snow
11:55 AM 17.8 °F 3.4 °F 9.9 °F 71% 30.01 in 10.0 mi North 15.0 mph - 0.00 in Snow Light Snow
12:07 PM 17.6 °F 2.2 °F 8.6 °F 68% 30.01 in 10.0 mi North 17.3 mph - N/A   Mostly Cloudy
12:09 PM 17.6 °F 3.2 °F 10.4 °F 73% 30.01 in 10.0 mi North 15.0 mph - N/A   Overcast
12:12 PM 17.6 °F 3.2 °F 10.4 °F 73% 30.00 in 10.0 mi North 15.0 mph - N/A Snow Light Snow
12:13 PM 17.6 °F 3.2 °F 10.4 °F 73% 30.00 in 10.0 mi North 15.0 mph - N/A Snow Light Snow
12:55 PM 17.1 °F 1.5 °F 9.9 °F 73% 30.02 in 9.0 mi North 17.3 mph - 0.00 in Snow Light Snow
1:13 PM 15.8 °F -0.2 °F 8.6 °F 73% 30.03 in 10.0 mi North 17.3 mph 21.9 mph N/A   Overcast
1:15 PM 15.8 °F -0.2 °F 8.6 °F 73% 30.03 in 10.0 mi North 17.3 mph 21.9 mph N/A Snow Light Snow
1:22 PM 15.8 °F 0.9 °F 8.6 °F 73% 30.03 in 10.0 mi North 15.0 mph - N/A Snow Light Snow
1:25 PM 15.8 °F 1.4 °F 8.6 °F 73% 29.99 in 10.0 mi North 13.8 mph - N/A Snow Light Snow
1:34 PM 15.8 °F 0.3 °F 8.6 °F 73% 30.03 in 10.0 mi North 16.1 mph - N/A   Mostly Cloudy
1:35 PM 15.8 °F 0.3 °F 8.6 °F 73% 30.03 in 10.0 mi North 16.1 mph 23.0 mph N/A Snow Light Snow
1:36 PM 15.8 °F -0.2 °F 8.6 °F 73% 30.03 in 10.0 mi North 17.3 mph 23.0 mph N/A   Mostly Cloudy
1:42 PM 15.8 °F 0.3 °F 8.6 °F 73% 30.03 in 10.0 mi North 16.1 mph 23.0 mph N/A   Scattered Clouds
1:55 PM 16.3 °F 1.0 °F 8.2 °F 70% 30.04 in 10.0 mi North 16.1 mph - 0.00 in   Scattered Clouds
2:41 PM 14.0 °F -2.0 °F 6.8 °F 73% 30.05 in 10.0 mi North 16.1 mph - N/A Snow Light Snow
2:46 PM 14.0 °F -2.0 °F 6.8 °F 73% 30.06 in 10.0 mi North 16.1 mph - N/A   Mostly Cloudy
2:51 PM 14.0 °F -2.0 °F 6.8 °F 73% 30.05 in 10.0 mi North 16.1 mph 21.9 mph N/A   Mostly Cloudy
2:56 PM 14.0 °F -0.8 °F 6.8 °F 73% 30.06 in 10.0 mi North 13.8 mph 21.9 mph N/A   Mostly Cloudy
3:36 PM 14.0 °F -0.8 °F 5.0 °F 67% 30.08 in 10.0 mi North 13.8 mph - N/A   Scattered Clouds
3:55 PM 12.6 °F -2.0 °F 5.4 °F 73% 30.09 in 10.0 mi North 12.7 mph - N/A   Partly Cloudy
4:53 PM 10.4 °F -4.1 °F 3.2 °F 73% 30.13 in 10.0 mi North 11.5 mph - N/A   Partly Cloudy
4:55 PM 10.0 °F -4.5 °F 3.7 °F 76% 30.12 in 10.0 mi North 11.5 mph - N/A   Partly Cloudy
4:59 PM 10.4 °F -4.8 °F 3.2 °F 73% 30.13 in 10.0 mi North 12.7 mph - N/A   Mostly Cloudy
5:01 PM 10.4 °F -4.1 °F 3.2 °F 73% 30.13 in 10.0 mi North 11.5 mph - N/A   Mostly Cloudy
5:09 PM 8.6 °F -3.7 °F 3.2 °F 79% 30.13 in 10.0 mi North 8.1 mph - N/A   Mostly Cloudy
5:12 PM 8.6 °F -3.7 °F 3.2 °F 79% 30.13 in 10.0 mi North 8.1 mph - N/A Snow Light Snow
5:21 PM 8.6 °F -3.7 °F 3.2 °F 79% 30.14 in 10.0 mi North 8.1 mph - N/A   Overcast
5:25 PM 8.6 °F -3.7 °F 3.2 °F 79% 30.14 in 10.0 mi North 8.1 mph - N/A   Overcast
5:40 PM 8.6 °F -3.7 °F 3.2 °F 79% 30.15 in 10.0 mi North 8.1 mph - N/A   Overcast
5:51 PM 8.6 °F -4.7 °F 3.2 °F 79% 30.16 in 10.0 mi North 9.2 mph - N/A   Overcast
5:55 PM 8.1 °F -5.3 °F 2.5 °F 78% 30.16 in 10.0 mi North 9.2 mph - 0.00 in   Overcast
6:15 PM 6.8 °F -6.9 °F 1.4 °F 79% 30.17 in 10.0 mi North 9.2 mph - N/A   Overcast
6:30 PM 8.6 °F -4.7 °F 1.4 °F 73% 30.18 in 10.0 mi North 9.2 mph - N/A   Overcast
6:42 PM 6.8 °F -7.8 °F 1.4 °F 79% 30.19 in 10.0 mi North 10.4 mph - N/A   Overcast
6:53 PM 6.8 °F -6.9 °F 1.4 °F 79% 30.19 in 10.0 mi North 9.2 mph - N/A   Overcast
6:55 PM 6.6 °F -7.1 °F 1.2 °F 79% 30.19 in 10.0 mi North 9.2 mph - N/A   Overcast
7:03 PM 6.8 °F -6.9 °F 1.4 °F 79% 30.20 in 10.0 mi North 9.2 mph - N/A   Overcast
7:05 PM 6.8 °F -6.9 °F 1.4 °F 79% 30.20 in 10.0 mi North 9.2 mph - N/A   Overcast
7:25 PM 5.0 °F -9.1 °F -0.4 °F 78% 30.21 in 10.0 mi NNW 9.2 mph - N/A   Overcast
7:34 PM 5.0 °F -6.9 °F -0.4 °F 78% 30.21 in 10.0 mi Variable 6.9 mph - N/A   Overcast
7:55 PM 6.4 °F -9.0 °F 0.7 °F 77% 30.22 in 10.0 mi North 11.5 mph - N/A   Overcast
8:32 PM 5.0 °F -10.8 °F -0.4 °F 78% 30.22 in 10.0 mi North 11.5 mph - N/A   Overcast
8:55 PM 5.4 °F -9.6 °F 0.1 °F 79% 30.23 in 10.0 mi North 10.4 mph - N/A   Overcast
9:10 PM 5.0 °F -10.0 °F -0.4 °F 78% 30.24 in 10.0 mi North 10.4 mph - N/A   Overcast
9:55 PM 4.1 °F -10.2 °F -0.9 °F 80% 30.24 in 10.0 mi NNW 9.2 mph - N/A   Overcast
10:50 PM 3.2 °F -11.3 °F -0.4 °F 85% 30.26 in 10.0 mi NW 9.2 mph - N/A   Scattered Clouds
10:55 PM 3.6 °F -10.9 °F -1.3 °F 80% 30.26 in 10.0 mi NW 9.2 mph - N/A   Scattered Clouds
11:55 PM 3.6 °F -10.9 °F -1.5 °F 80% 30.28 in 10.0 mi NNW 9.2 mph - N/A   Clear
11:58 PM 3.2 °F -11.3 °F -2.2 °F 78% 30.27 in 10.0 mi NW 9.2 mph - N/A   Partly Cloudy